This is the latest recevied weather packets stored in our database for station/object KM5R. If no packets are shown the sender has not sent any weather packets the latest 1 day(s).
| Time | Temp. | Humidity | Pressure | Rain* | Wind** | Luminosity | Snow |
|---|---|---|---|---|---|---|---|
| 1778056867 | 17.78° C | 77% | 1011.1 hPa | 0 mm | 2.24 m/s, 268° | 0 W/m² | - |
| 1778056564 | 18.33° C | 77% | 1010.9 hPa | 0 mm | 4.02 m/s, 299° | 0 W/m² | - |
| 1778056261 | 18.33° C | 77% | 1011.1 hPa | 0 mm | 3.13 m/s, 300° | 0 W/m² | - |
| 1778055958 | 18.33° C | 77% | 1011 hPa | 0 mm | 3.13 m/s, 323° | 0 W/m² | - |
| 1778055653 | 18.33° C | 77% | 1011.1 hPa | 0 mm | 2.68 m/s, 329° | 0 W/m² | - |
| 1778055352 | 18.33° C | 77% | 1011 hPa | 0 mm | 3.13 m/s, 300° | 0 W/m² | - |
| 1778055049 | 18.89° C | 77% | 1010.8 hPa | 0 mm | 3.13 m/s, 313° | 0 W/m² | - |
| 1778054747 | 18.89° C | 77% | 1010.7 hPa | 0 mm | 1.34 m/s, 355° | 0 W/m² | - |
| 1778054443 | 18.89° C | 77% | 1010.7 hPa | 0 mm | 0.89 m/s, 354° | 0 W/m² | - |
| 1778054141 | 18.89° C | 77% | 1010.8 hPa | 0 mm | 1.34 m/s, 308° | 0 W/m² | - |
| 1778053837 | 18.89° C | 77% | 1010.6 hPa | 0 mm | 1.79 m/s, 316° | 0 W/m² | - |
| 1778053535 | 18.89° C | 77% | 1010.7 hPa | 0 mm | 0.89 m/s, 315° | 0 W/m² | - |
| 1778053232 | 18.89° C | 77% | 1010.8 hPa | 0 mm | 0.89 m/s, 326° | 0 W/m² | - |
| 1778052930 | 18.89° C | 77% | 1010.9 hPa | 0 mm | 1.34 m/s, 336° | 0 W/m² | - |
| 1778052627 | 18.89° C | 77% | 1010.8 hPa | 0 mm | 1.34 m/s, 355° | 0 W/m² | - |
| 1778052324 | 18.89° C | 77% | 1010.7 hPa | 0 mm | 1.34 m/s, 298° | 0 W/m² | - |
| 1778052022 | 18.89° C | 78% | 1010.8 hPa | 0 mm | 1.79 m/s, 323° | 0 W/m² | - |
| 1778051720 | 18.89° C | 78% | 1010.8 hPa | 0 mm | 1.34 m/s, 306° | 0 W/m² | - |
| 1778051416 | 18.89° C | 78% | 1011 hPa | 0 mm | 0.89 m/s, 349° | 0 W/m² | - |
| 1778051114 | 18.89° C | 77% | 1010.7 hPa | 0 mm | 0.89 m/s, 310° | 0 W/m² | - |
| 1778050811 | 18.89° C | 77% | 1010.8 hPa | 0 mm | 1.34 m/s, 333° | 0 W/m² | - |
| 1778050508 | 18.89° C | 77% | 1010.7 hPa | 0 mm | 2.24 m/s, 312° | 0 W/m² | - |
| 1778050205 | 19.44° C | 77% | 1010.8 hPa | 0 mm | 0.89 m/s, 297° | 0 W/m² | - |
| 1778049902 | 19.44° C | 77% | 1011.1 hPa | 0 mm | 0.45 m/s, 345° | 0 W/m² | - |
| 1778049597 | 19.44° C | 77% | 1011 hPa | 0 mm | 0.45 m/s, 322° | 0 W/m² | - |
* Rain latest hour (hover to see other rain measurements)
** Current wind speed in m/s (hover to see current wind gust speed)